[[{"header":{"parameterUnit":"m.s-1","parameterCategory":2,"la1":30.2991,"la2":30.254,"lo1":-89.0895,"lo2":-89.0444,"dy":0.0017,"dx":0.0017,"nx":28,"ny":28,"refTime":"2024-12-04T09:00:00:Z","depth":"0","parameterNumber":2,"parameterNumberName":"U-component_of_CURRENTS"},"data":[0,0,0,0,0,0,0,0,0,0,0,0,0,0,0,0,0,0,0,0,0,0,0,0,0,0,0,0,0,0,0,0,0,0,0,0,0,0,0,0,0,0,0,0,0,0,0,0,0,0,0,0,0,0,0,0,0,0,0.299,0.299,0,0.2995,0.2995,0.2995,0.2981,0.2981,0.2981,0.2981,0.2977,0.2977,0.2978,0,0,0,0,0,0,0,0,0,0,0,0,0,0.3009,0.3008,0.299,0.299,0.299,0.2995,0.2995,0.2995,0.2981,0.2981,0.2981,0.2981,0.2977,0.2977,0.2978,0,0,0,0,0,0,0,0,0,0,0,0,0,0.3004,0.3008,0.299,0.2986,0.2985,0.2995,0.2995,0.2995,0.2981,0.2981,0.2981,0.298,0.2977,0.2977,0.2978,0.2986,0,0,0.2978,0.2978,0,0,0,0,0,0,0,0,0.3004,0.3003,0.2986,0.2986,0.2986,0.2989,0.3,0.2992,0.2982,0.2981,0.2981,0.298,0.2982,0.2982,0.2981,0.2986,0.2986,0.2978,0.2978,0.2979,0.2979,0,0,0,0,0,0,0,0.3004,0.3003,0.299,0.2986,0.2986,0.2997,0.2996,0.2999,0.2982,0.2981,0.2981,0.2984,0.2981,0.2981,0.2981,0.2986,0.2978,0.2978,0.2979,0.2979,0.3036,0.3037,0,0,0,0,0,0,0.3006,0.3003,0.299,0.299,0.2996,0.2997,0.2995,0.2987,0.2982,0.2982,0.2985,0.2984,0.2981,0.298,0.2981,0.3024,0.2979,0.2979,0.2979,0.3034,0.3036,0.3037,0,0,0,0,0,0,0.3006,0.3004,0.299,0.2999,0.2998,0.2997,0.2988,0.2987,0.299,0.2985,0.2984,0.2989,0.298,0.298,0.2992,0.3022,0.2979,0.2979,0.3032,0.3035,0.3037,0.3089,0,0,0,0,0,0,0.3006,0.3004,0.3001,0.2999,0.2998,0.3,0.2988,0.2987,0.2993,0.2992,0.2989,0.2987,0.298,0.2992,0.2993,0.3022,0.2979,0.3031,0.3033,0.3036,0.3085,0.3092,0.3098,0,0,0,0,0,0.3007,0.3004,0.3,0.2999,0.2992,0.3001,0.3002,0.2999,0.2994,0.2999,0.2999,0.2988,0.3009,0.2993,0.2994,0.3023,0.3029,0.3033,0.3036,0.3082,0.3091,0.3098,0,0,0,0,0,0,0.3011,0.3002,0.2998,0.2992,0.2999,0.3,0.3004,0.3004,0.3008,0.3008,0.2999,0.2999,0.3026,0.3016,0.2999,0.3049,0.302,0.3024,0.3056,0.3064,0.307,0.308,0.2979,0,0,0,0,0,0.3011,0.3003,0.3004,0.3001,0.3004,0.3006,0.301,0.3011,0.3014,0.3015,0.3013,0.3019,0.3039,0.3043,0.3052,0.3072,0.3081,0.3094,0.3101,0.3107,0.3116,0.3175,0.3188,0.3048,0.3048,0.3047,0,0,0.3009,0.3007,0.3,0.3002,0.3004,0.302,0.3007,0.3017,0.3035,0.3015,0.3033,0.3041,0.305,0.3079,0.309,0.3073,0.3146,0.3111,0.3115,0.3122,0.318,0.3194,0.3206,0.305,0.3049,0.3049,0,0,0.301,0.3002,0.3,0.3011,0.3023,0.3031,0.3037,0.3042,0.3048,0.3069,0.307,0.3096,0.3106,0.3128,0.314,0.3189,0.3182,0.319,0.3228,0.3285,0.3298,0.3309,0.3316,0.3327,0.319,0.319,0.319,0,0.3013,0.3009,0.3005,0.3018,0.3031,0.3039,0.3055,0.3069,0.3079,0.31,0.3082,0.3139,0.3137,0.3199,0.3211,0.3206,0.3219,0.3196,0.3295,0.3306,0.3316,0.3321,0.3333,0.3193,0.3193,0.3192,0.3192,0,0.3015,0.3022,0.3026,0.3043,0.306,0.3075,0.3098,0.3118,0.3129,0.3151,0.3206,0.3212,0.3251,0.3256,0.3244,0.3322,0.3299,0.33,0.3275,0.3334,0.3334,0.3346,0.3197,0.3196,0.3195,0.3195,0,0,0.2991,0.3021,0.3023,0.3036,0.3075,0.3084,0.3131,0.3177,0.322,0.324,0.3296,0.3331,0.3344,0.3359,0.3358,0.3396,0.3463,0.3375,0.3376,0.3381,0.356,0.349,0.3495,0.3485,0.3488,0.3491,0.3523,0,0.2996,0.3019,0.304,0.3072,0.3085,0.3123,0.3167,0.3216,0.3261,0.3317,0.3355,0.3404,0.3383,0.3403,0.3446,0.3465,0.3499,0.3452,0.3503,0.3503,0.3435,0.3509,0.3349,0.3361,0.3533,0.3535,0.3537,0,0.2985,0.3005,0.3031,0.3085,0.3096,0.3123,0.3201,0.3246,0.3344,0.3386,0.346,0.3484,0.3549,0.3516,0.3597,0.3569,0.3571,0.3575,0.3577,0.3505,0.3457,0.3335,0.3374,0.3268,0.3554,0.3552,0.3551,0,0.2949,0.2997,0.3015,0.3031,0.3097,0.3124,0.3168,0.3264,0.3321,0.3433,0.3481,0.3574,0.3609,0.3655,0.3661,0.3639,0.3735,0.3708,0.3646,0.3638,0.3509,0.3486,0.3452,0.3773,0.3773,0.3773,0.3773,0,0.2935,0.2948,0.2997,0.3004,0.3044,0.31,0.3169,0.3238,0.3352,0.3417,0.3507,0.3565,0.3649,0.3701,0.3703,0.3712,0.3778,0.3668,0.3661,0.3518,0.3496,0.3402,0.337,0.3774,0.3774,0.3773,0.3773,0,0.2885,0.2917,0.294,0.3003,0.3022,0.3049,0.3153,0.3207,0.3323,0.3409,0.3441,0.3581,0.3647,0.3704,0.3776,0.3751,0.3658,0.3753,0.3555,0.3523,0.3342,0.3319,0.32,0.31,0.3686,0.3684,0.3683,0,0.2857,0.2864,0.2919,0.293,0.2954,0.3009,0.3048,0.3177,0.3239,0.3397,0.3424,0.3536,0.3588,0.3681,0.3676,0.3686,0.3594,0.3535,0.347,0.3325,0.3295,0.319,0.3107,0.3305,0.33,0.3297,0.3295,0,0.2811,0.2832,0.2853,0.2873,0.2899,0.2939,0.3002,0.3051,0.3187,0.3248,0.3339,0.3398,0.3501,0.3463,0.3498,0.3484,0.3349,0.3465,0.3383,0.3058,0.2875,0.2774,0.3262,0.3265,0.3268,0.327,0.3272,0.3273,0.2772,0.277,0.2791,0.2799,0.2824,0.2833,0.2824,0.2898,0.2952,0.2999,0.3164,0.3172,0.3245,0.3276,0.3253,0.3106,0.3132,0.2991,0.2992,0.2911,0.2761,0.3165,0.3123,0.3125,0.3127,0.3128,0.313,0,0.2699,0.2698,0.271,0.2696,0.2667,0.2721,0.2752,0.2713,0.269,0.2788,0.2833,0.2851,0.2818,0.2857,0.2785,0.2658,0.2542,0.2572,0.2388,0.2344,0.2758,0.2688,0.2466,0.2466,0.2466,0.2467,0.2467,0.2467,0.2659,0.2623,0.2617,0.2526,0.2514,0.242,0.2403,0.2369,0.2396,0.236,0.2349,0.2433,0.2561,0.254,0.2395,0.2329,0.2143,0.2027,0.2051,0.2345,0.2383,0.242,0.2346,0.2056,0.2055,0.1507,0.1503,0.15]},{"header":{"parameterUnit":"m.s-1","parameterCategory":2,"la1":30.2991,"la2":30.254,"lo1":-89.0895,"lo2":-89.0444,"dy":0.0017,"dx":0.0017,"nx":28,"ny":28,"refTime":"2024-12-04T09:00:00:Z","depth":"0","parameterNumber":3,"parameterNumberName":"V-component_of_CURRENTS"},"data":[0,0,0,0,0,0,0,0,0,0,0,0,0,0,0,0,0,0,0,0,0,0,0,0,0,0,0,0,0,0,0,0,0,0,0,0,0,0,0,0,0,0,0,0,0,0,0,0,0,0,0,0,0,0,0,0,0,0,0.0084,0.0083,0,0.0037,0.0037,0.0036,0.0002,0.0002,0.0002,0.0002,-0.0057,-0.0059,-0.006,0,0,0,0,0,0,0,0,0,0,0,0,0,0.01,0.01,0.0084,0.0083,0.0083,0.0037,0.0037,0.0036,0.0002,0.0002,0.0002,0.0002,-0.0057,-0.0058,-0.006,0,0,0,0,0,0,0,0,0,0,0,0,0,0.0076,0.01,0.0084,0.0061,0.0059,0.0038,0.0037,0.0036,0.0002,0.0002,0.0002,0.0001,-0.0056,-0.0058,-0.006,-0.0069,0,0,-0.0067,-0.0068,0,0,0,0,0,0,0,0,0.0078,0.0075,0.0065,0.0063,0.006,0.0026,0.0021,0.0001,0.0002,0.0022,0.0002,0.0001,-0.0029,-0.0034,-0.0044,-0.0071,-0.0074,-0.0067,-0.0068,-0.0069,-0.007,0,0,0,0,0,0,0,0.0079,0.0077,0.0064,0.0065,0.0062,0.0039,0.0036,0.0017,-0.0003,0.0021,0.0018,0.0015,-0.0031,-0.0042,-0.0045,-0.0075,-0.0067,-0.0069,-0.007,-0.0071,-0.0106,-0.0106,0,0,0,0,0,0,0.009,0.0079,0.0065,0.0063,0.007,0.0039,0.0035,0.0036,-0.0003,-0.0008,0.0016,0.0014,-0.0038,-0.0043,-0.0047,-0.0042,-0.0069,-0.0071,-0.0072,-0.0107,-0.0106,-0.0106,0,0,0,0,0,0,0.0091,0.009,0.0067,0.007,0.0066,0.004,0.0041,0.0036,0.0029,-0.0006,-0.0012,0.0015,-0.0038,-0.0045,-0.0057,-0.0045,-0.0072,-0.0074,-0.0107,-0.0107,-0.0106,-0.0041,0,0,0,0,0,0,0.0092,0.009,0.0093,0.0071,0.0066,0.0066,0.0041,0.0035,0.0028,0.0025,-0.0008,-0.0015,-0.0039,-0.0053,-0.0059,-0.0048,-0.0076,-0.0108,-0.0107,-0.0106,-0.0044,-0.0039,-0.0034,0,0,0,0,0,0.0093,0.0103,0.0094,0.0092,0.0072,0.0066,0.0062,0.0041,0.0028,0.0032,0.0008,-0.0013,-0.0054,-0.0055,-0.0061,-0.0051,-0.0108,-0.0107,-0.0106,-0.0046,-0.004,-0.0034,0,0,0,0,0,0,0.0111,0.01,0.009,0.0096,0.0086,0.0061,0.0061,0.0047,0.003,0.0025,-0.0008,-0.0015,-0.0024,-0.0046,-0.0047,-0.006,-0.0085,-0.0085,-0.0037,-0.0031,-0.0026,-0.0006,-0.0078,0,0,0,0,0,0.0117,0.0123,0.0107,0.0112,0.0109,0.0085,0.0079,0.0067,0.0049,0.0041,0.0018,-0.0008,-0.0027,-0.0035,-0.0058,-0.0061,-0.0079,-0.0061,-0.0056,-0.0051,-0.004,-0.0056,-0.0051,-0.0104,-0.0104,-0.0104,0,0,0.0124,0.012,0.0121,0.0116,0.0104,0.0113,0.0081,0.0078,0.0086,0.0038,0.0039,0.0007,-0.0026,-0.0032,-0.0038,-0.0047,-0.0046,-0.005,-0.0046,-0.0037,-0.0055,-0.0049,-0.0045,-0.0103,-0.0103,-0.0103,0,0,0.015,0.0139,0.0155,0.0153,0.0145,0.0133,0.0137,0.0118,0.0108,0.0103,0.007,0.005,0.0021,0.0003,-0.0011,0.0007,-0.0023,-0.0003,0.0042,0.0027,0.0031,0.0035,0.002,0.0022,0.0003,0.0003,0.0003,0,0.0159,0.0179,0.0158,0.0177,0.0182,0.0149,0.0171,0.0158,0.0138,0.014,0.0113,0.0075,0.004,0.004,0.004,0.002,0.0006,0.0025,0.0035,0.0038,0.0041,0.0024,0.0025,0.0006,0.0006,0.0006,0.0005,0,0.02,0.0215,0.0225,0.024,0.0242,0.0254,0.0239,0.0235,0.0215,0.0207,0.0197,0.0146,0.0127,0.0108,0.0077,0.0082,0.0064,0.0041,0.0024,0.005,0.0031,0.0031,0.0011,0.001,0.0009,0.0008,0,0,0.0228,0.0251,0.0256,0.0279,0.0278,0.029,0.0297,0.0306,0.0332,0.0288,0.0313,0.0256,0.0228,0.0209,0.0166,0.0146,0.0141,0.0106,0.0104,0.0099,0.0111,0.0099,0.0098,0.0121,0.0121,0.0122,0.009,0,0.0269,0.0324,0.032,0.0371,0.0398,0.0375,0.0394,0.0395,0.039,0.0404,0.0343,0.0345,0.0268,0.0261,0.0228,0.017,0.0145,0.0152,0.0079,0.0077,0.007,0.0099,0.0128,0.0103,0.009,0.009,0.009,0,0.0316,0.035,0.0406,0.0451,0.0461,0.0481,0.0517,0.0535,0.0537,0.0534,0.0514,0.0468,0.0428,0.0356,0.0269,0.0279,0.02,0.0145,0.0142,0.0111,0.0066,0.0074,0.0104,-0.0008,0.009,0.009,0.009,0,0.0361,0.0414,0.0465,0.0478,0.0516,0.0534,0.0557,0.0576,0.0622,0.0623,0.0648,0.0584,0.0567,0.0459,0.0323,0.0301,0.023,0.0184,0.0097,0.0095,0.0097,0.0095,0.0019,0.012,0.012,0.012,0.012,0,0.0414,0.0457,0.0491,0.0521,0.0593,0.0596,0.068,0.0689,0.0736,0.081,0.0723,0.0759,0.0592,0.052,0.0376,0.0249,0.0267,0.0117,0.0092,0.0119,0.012,0.0002,-0.0079,0.0119,0.0119,0.0119,0.0119,0,0.0458,0.0476,0.0545,0.0595,0.0617,0.0673,0.0767,0.0839,0.0857,0.0947,0.0948,0.0906,0.0815,0.0638,0.0481,0.0339,0.0135,0.0144,0.0187,0.0168,-0.0023,-0.0102,-0.0222,-0.0273,0.0052,0.0052,0.0051,0,0.0488,0.0526,0.0606,0.066,0.0686,0.0771,0.084,0.0895,0.0985,0.1046,0.1101,0.1035,0.1017,0.0782,0.0524,0.0285,0.014,0.0141,0.0093,-0.0017,-0.0123,-0.0187,-0.0226,0.0118,0.0118,0.0118,0.0118,0,0.0551,0.0574,0.0634,0.0742,0.0821,0.0926,0.1028,0.1116,0.1188,0.126,0.1345,0.1332,0.1108,0.0893,0.0553,0.0381,0.0068,0.0137,0.0016,-0.0078,-0.0145,-0.0211,0.0116,0.012,0.012,0.012,0.012,0.012,0.0601,0.0655,0.0733,0.0837,0.0934,0.106,0.1154,0.1277,0.1418,0.1523,0.1523,0.1529,0.121,0.0767,0.0523,0.0103,0.0069,-0.0033,-0.0119,-0.0173,-0.0224,0.0106,0.0084,0.0083,0.0083,0.0083,0.0082,0,0.0665,0.0725,0.0826,0.0946,0.1056,0.1096,0.1267,0.1367,0.1528,0.1632,0.1701,0.156,0.1179,0.0766,0.0195,-0.0099,-0.0207,-0.0261,-0.0341,-0.0369,-0.007,-0.0068,-0.0115,-0.0115,-0.0115,-0.0115,-0.0115,-0.0114,0.0702,0.0797,0.0843,0.1019,0.1108,0.1252,0.1347,0.1494,0.1605,0.1725,0.1739,0.1731,0.1418,0.0444,-0.019,-0.0332,-0.0544,-0.06,-0.0713,-0.0507,-0.0492,-0.0477,-0.0492,-0.0628,-0.0629,-0.0951,-0.0954,-0.0957]}],[{"header":{"parameterUnit":"m.s-1","parameterCategory":2,"la1":30.2991,"la2":30.254,"lo1":-89.0895,"lo2":-89.0444,"dy":0.0017,"dx":0.0017,"nx":28,"ny":28,"refTime":"2024-12-04T09:00:00:Z","depth":"2","parameterNumber":2,"parameterNumberName":"U-component_of_CURRENTS"},"data":[0,0,0,0,0,0,0,0,0,0,0,0,0,0,0,0,0,0,0,0,0,0,0,0,0,0,0,0,0,0,0,0,0,0,0,0,0,0,0,0,0,0,0,0,0,0,0,0,0,0,0,0,0,0,0,0,0,0,0.2647,0.2648,0,0.2658,0.2658,0.2658,0.2656,0.2656,0.2656,0.2656,0.2659,0.2659,0.2659,0,0,0,0,0,0,0,0,0,0,0,0,0,0.2638,0.2637,0.2647,0.2648,0.2648,0.2658,0.2658,0.2658,0.2656,0.2656,0.2656,0.2656,0.2659,0.2659,0.2659,0,0,0,0,0,0,0,0,0,0,0,0,0,0.2642,0.2637,0.2647,0.265,0.265,0.2658,0.2658,0.2658,0.2656,0.2656,0.2656,0.2656,0.2659,0.2659,0.2659,0.266,0,0,0.266,0.266,0,0,0,0,0,0,0,0,0.2642,0.2643,0.2649,0.265,0.265,0.2657,0.2656,0.2659,0.2656,0.2652,0.2656,0.2656,0.2659,0.2659,0.2659,0.2661,0.2661,0.266,0.266,0.266,0.266,0,0,0,0,0,0,0,0.2642,0.2642,0.265,0.2649,0.265,0.2655,0.2655,0.2656,0.2654,0.2652,0.2652,0.2657,0.2659,0.2658,0.2659,0.2661,0.266,0.266,0.266,0.266,0.272,0.2722,0,0,0,0,0,0,0.2644,0.2642,0.2649,0.265,0.2648,0.2655,0.2655,0.2653,0.2654,0.2655,0.2657,0.2657,0.2658,0.2658,0.2659,0.2706,0.266,0.266,0.266,0.2719,0.272,0.2722,0,0,0,0,0,0,0.2643,0.2644,0.2649,0.2648,0.2649,0.2655,0.2653,0.2654,0.2665,0.2658,0.2658,0.2669,0.2658,0.2659,0.2676,0.2704,0.266,0.266,0.2717,0.2719,0.2721,0.2771,0,0,0,0,0,0,0.2643,0.2644,0.2648,0.2648,0.2649,0.2662,0.2653,0.2654,0.2668,0.2668,0.2669,0.2668,0.2658,0.2676,0.2676,0.2704,0.266,0.2715,0.2718,0.2721,0.2768,0.2775,0.2781,0,0,0,0,0,0.2642,0.2647,0.2648,0.265,0.2654,0.2663,0.2664,0.2667,0.2669,0.2677,0.2682,0.2669,0.2694,0.2677,0.2677,0.2705,0.2714,0.2717,0.272,0.2765,0.2774,0.2781,0,0,0,0,0,0,0.2643,0.2647,0.2649,0.2654,0.2663,0.2664,0.2673,0.2677,0.2686,0.269,0.2682,0.2682,0.2712,0.2702,0.2683,0.2733,0.2705,0.2708,0.2739,0.2747,0.2753,0.276,0.266,0,0,0,0,0,0.2647,0.2651,0.2657,0.2663,0.2669,0.2674,0.2681,0.2686,0.2692,0.2697,0.2698,0.2707,0.2724,0.273,0.2738,0.2759,0.2766,0.278,0.2787,0.2793,0.28,0.285,0.2862,0.2733,0.2733,0.2733,0,0,0.2647,0.2652,0.2654,0.2664,0.2671,0.2686,0.2678,0.2694,0.2711,0.2696,0.272,0.273,0.2736,0.2764,0.2777,0.276,0.2831,0.2797,0.2802,0.2806,0.2855,0.2867,0.2878,0.2736,0.2735,0.2735,0,0,0.2652,0.2658,0.2664,0.2677,0.2695,0.2702,0.2711,0.2722,0.2732,0.2757,0.2759,0.2787,0.28,0.2815,0.2824,0.2874,0.2868,0.288,0.2914,0.2963,0.2974,0.2984,0.2999,0.301,0.2879,0.288,0.288,0,0.2655,0.2662,0.2669,0.2684,0.2697,0.2712,0.2727,0.2744,0.2761,0.2782,0.2773,0.283,0.2828,0.2879,0.2894,0.289,0.2906,0.2881,0.2972,0.2982,0.2991,0.3004,0.3016,0.2882,0.2882,0.2882,0.2882,0,0.2664,0.2676,0.2684,0.2707,0.2724,0.2741,0.2765,0.279,0.2809,0.2831,0.2887,0.2895,0.2932,0.2938,0.2928,0.2997,0.2983,0.2978,0.295,0.3007,0.3017,0.3028,0.2886,0.2885,0.2885,0.2884,0,0,0.2647,0.2682,0.2685,0.2698,0.2737,0.2748,0.2793,0.2835,0.2877,0.2907,0.2959,0.2994,0.3014,0.3026,0.3027,0.306,0.3128,0.3046,0.3047,0.3058,0.322,0.3144,0.3148,0.3144,0.3147,0.3149,0.3197,0,0.265,0.2674,0.2696,0.2726,0.2739,0.2778,0.2819,0.2867,0.2912,0.2969,0.3008,0.3058,0.3044,0.3068,0.3106,0.3128,0.316,0.3114,0.3166,0.3167,0.3091,0.316,0.2898,0.2914,0.3208,0.3209,0.3211,0,0.2644,0.2663,0.2687,0.2735,0.2746,0.2774,0.2847,0.2888,0.2981,0.3024,0.3096,0.3125,0.319,0.3164,0.3245,0.3219,0.3227,0.3234,0.3236,0.3156,0.3112,0.2908,0.2922,0.3228,0.3227,0.3225,0.3224,0,0.261,0.2653,0.267,0.2685,0.2747,0.2775,0.2817,0.2906,0.2958,0.3067,0.3117,0.3204,0.3248,0.3291,0.3309,0.3289,0.3384,0.3357,0.3294,0.3287,0.3069,0.3039,0.3417,0.3417,0.3416,0.3416,0.3416,0,0.2592,0.2605,0.2657,0.2665,0.2703,0.2757,0.2822,0.2886,0.2991,0.3054,0.3143,0.32,0.3286,0.3342,0.3348,0.3359,0.3424,0.3315,0.3308,0.3077,0.3049,0.3323,0.3311,0.3418,0.3418,0.3417,0.3417,0,0.2545,0.2578,0.2601,0.2664,0.2685,0.2714,0.2812,0.2861,0.2972,0.3057,0.3093,0.3226,0.3298,0.3358,0.3428,0.3399,0.3416,0.3398,0.3108,0.3066,0.3271,0.3262,0.3335,0.3333,0.3332,0.333,0.3329,0,0.252,0.2527,0.2586,0.2599,0.2625,0.2682,0.272,0.2839,0.2892,0.3051,0.3077,0.3197,0.3248,0.3335,0.3314,0.3321,0.3392,0.3073,0.2987,0.3284,0.327,0.3263,0.3256,0.2709,0.2703,0.2698,0.2694,0,0.2476,0.25,0.252,0.2545,0.2576,0.2614,0.2676,0.2715,0.2846,0.2909,0.2993,0.3052,0.3147,0.3046,0.3076,0.3043,0.3053,0.2971,0.3375,0.2776,0.2699,0.2684,0.2697,0.2649,0.2654,0.2657,0.2659,0.2661,0.2441,0.2439,0.2464,0.2477,0.2509,0.2517,0.2508,0.2574,0.2622,0.2674,0.2814,0.2802,0.285,0.2759,0.2678,0.2615,0.2828,0.269,0.2703,0.2722,0.2646,0.2572,0.2481,0.2485,0.2488,0.249,0.2493,0,0.2377,0.2379,0.239,0.2384,0.2363,0.2423,0.2446,0.2404,0.2385,0.2467,0.2505,0.2316,0.2255,0.2298,0.2131,0.2137,0.2096,0.2047,0.1962,0.201,0.2052,0.1939,0.1588,0.1585,0.1582,0.1579,0,0,0.2343,0.2312,0.2305,0.223,0.223,0.2159,0.2144,0.2101,0.2111,0.2056,0.202,0.2177,0.2245,0.1886,0.1846,0.1683,0.1831,0.1618,0.235,0.23,0.2338,0.2438,0.2321,0,0,0,0,0]},{"header":{"parameterUnit":"m.s-1","parameterCategory":2,"la1":30.2991,"la2":30.254,"lo1":-89.0895,"lo2":-89.0444,"dy":0.0017,"dx":0.0017,"nx":28,"ny":28,"refTime":"2024-12-04T09:00:00:Z","depth":"2","parameterNumber":3,"parameterNumberName":"V-component_of_CURRENTS"},"data":[0,0,0,0,0,0,0,0,0,0,0,0,0,0,0,0,0,0,0,0,0,0,0,0,0,0,0,0,0,0,0,0,0,0,0,0,0,0,0,0,0,0,0,0,0,0,0,0,0,0,0,0,0,0,0,0,0,0,0.0154,0.0154,0,0.0115,0.0115,0.0114,0.0085,0.0085,0.0085,0.0084,0.0041,0.004,0.0039,0,0,0,0,0,0,0,0,0,0,0,0,0,0.0168,0.0168,0.0154,0.0154,0.0153,0.0115,0.0115,0.0114,0.0085,0.0085,0.0085,0.0084,0.0042,0.004,0.0039,0,0,0,0,0,0,0,0,0,0,0,0,0,0.0148,0.0168,0.0154,0.0135,0.0133,0.0116,0.0115,0.0114,0.0085,0.0085,0.0084,0.0084,0.0042,0.0041,0.0039,0.0036,0,0,0.0035,0.0034,0,0,0,0,0,0,0,0,0.0149,0.0148,0.0138,0.0136,0.0134,0.0105,0.0104,0.0088,0.0085,0.0102,0.0084,0.0084,0.0063,0.006,0.0052,0.0034,0.0032,0.0035,0.0034,0.0033,0.0033,0,0,0,0,0,0,0,0.0151,0.0149,0.0138,0.0138,0.0135,0.0116,0.0113,0.01,0.0084,0.0101,0.0099,0.0096,0.0062,0.0054,0.0051,0.0032,0.0035,0.0033,0.0032,0.0032,0.0012,0.0013,0,0,0,0,0,0,0.0159,0.0151,0.0139,0.0137,0.0142,0.0116,0.0113,0.0114,0.0084,0.008,0.0096,0.0095,0.0056,0.0053,0.0049,0.006,0.0033,0.0032,0.0031,0.0012,0.0012,0.0013,0,0,0,0,0,0,0.016,0.0159,0.0141,0.0143,0.014,0.0117,0.0118,0.0114,0.0107,0.0081,0.0076,0.0095,0.0056,0.0051,0.0043,0.0057,0.0031,0.003,0.0012,0.0012,0.0013,0.0071,0,0,0,0,0,0,0.0161,0.016,0.0163,0.0144,0.014,0.014,0.0118,0.0113,0.0106,0.0104,0.0078,0.0074,0.0055,0.0045,0.0042,0.0055,0.0029,0.0011,0.0012,0.0013,0.0068,0.0073,0.0077,0,0,0,0,0,0.0161,0.0171,0.0163,0.0162,0.0145,0.014,0.0137,0.0118,0.0107,0.011,0.0091,0.0075,0.0047,0.0045,0.004,0.0053,0.0011,0.0012,0.0012,0.0066,0.0072,0.0077,0,0,0,0,0,0,0.0178,0.0168,0.0159,0.0165,0.0157,0.0136,0.0135,0.0123,0.0109,0.0105,0.0079,0.0074,0.0071,0.0053,0.0051,0.0048,0.0026,0.0026,0.0068,0.0074,0.0078,0.0093,0.0027,0,0,0,0,0,0.0183,0.0188,0.0175,0.0179,0.0176,0.0156,0.0151,0.014,0.0125,0.0118,0.0101,0.0082,0.007,0.0065,0.0049,0.005,0.0028,0.0055,0.0059,0.0063,0.0072,0.005,0.0053,0.0015,0.0015,0.0015,0,0,0.0188,0.0186,0.0187,0.0183,0.0172,0.0182,0.0152,0.0149,0.0158,0.0116,0.012,0.0096,0.0073,0.0072,0.007,0.0061,0.0061,0.0064,0.0068,0.0074,0.0051,0.0055,0.0058,0.0016,0.0016,0.0016,0,0,0.021,0.0202,0.0215,0.0214,0.0207,0.0198,0.0201,0.0184,0.0177,0.0175,0.0149,0.0134,0.0116,0.0104,0.0096,0.0115,0.0083,0.0109,0.0147,0.0126,0.0129,0.0132,0.0106,0.0106,0.0114,0.0114,0.0114,0,0.0218,0.0236,0.0218,0.0235,0.0241,0.0211,0.0232,0.0223,0.0206,0.0208,0.0184,0.0159,0.0133,0.014,0.0143,0.0127,0.0106,0.0131,0.0133,0.0135,0.0136,0.0109,0.0108,0.0117,0.0116,0.0116,0.0116,0,0.0253,0.0268,0.0277,0.0291,0.0295,0.0306,0.0295,0.0293,0.0277,0.027,0.0265,0.0224,0.0212,0.0198,0.0175,0.0179,0.0158,0.014,0.0122,0.0144,0.0113,0.0111,0.0121,0.012,0.0119,0.0118,0,0,0.0274,0.0298,0.0303,0.0325,0.0328,0.0339,0.035,0.0361,0.0383,0.0346,0.0365,0.0327,0.0301,0.0289,0.0254,0.0231,0.0215,0.0194,0.0191,0.0174,0.0166,0.0149,0.0144,0.0197,0.0197,0.0197,0.0139,0,0.031,0.036,0.0359,0.0408,0.0434,0.0418,0.0439,0.0441,0.0436,0.0445,0.0395,0.0397,0.0339,0.0333,0.03,0.0242,0.0213,0.0233,0.0142,0.014,0.0127,0.0143,0.0163,0.0113,0.0137,0.0136,0.0136,0,0.0349,0.0382,0.0435,0.048,0.049,0.0511,0.0546,0.0565,0.0563,0.0558,0.0539,0.0499,0.0462,0.0404,0.0313,0.0328,0.0253,0.0197,0.0194,0.0159,0.012,0.0094,0.0108,0.0132,0.0132,0.0133,0.0133,0,0.0386,0.0437,0.0486,0.05,0.054,0.0559,0.0582,0.06,0.0638,0.0633,0.0648,0.0591,0.0569,0.0468,0.0342,0.033,0.0235,0.0204,0.0116,0.0113,0.0103,0.01,0.0136,0.0136,0.0137,0.0137,0.0137,0,0.0431,0.0471,0.0508,0.0537,0.0603,0.0612,0.0685,0.0694,0.0729,0.0786,0.0713,0.0733,0.0584,0.0506,0.0377,0.0245,0.0259,0.0128,0.0101,0.0123,0.0123,0.0117,0.0116,0.0134,0.0135,0.0135,0.0136,0,0.0465,0.0485,0.0551,0.0603,0.0623,0.0674,0.0757,0.0816,0.0831,0.0895,0.0895,0.0847,0.0749,0.0588,0.0431,0.0305,0.017,0.0115,0.0147,0.0126,0.005,0.0053,0.0017,0.0016,0.0015,0.0014,0.0013,0,0.0488,0.0524,0.0602,0.0648,0.0674,0.0752,0.0812,0.0862,0.0934,0.097,0.1007,0.0933,0.0897,0.0658,0.0431,0.0208,0.0172,0.0072,0.0049,0.0063,0.004,0.0044,0.0047,0.0053,0.0053,0.0053,0.0053,0,0.0537,0.056,0.0615,0.071,0.078,0.0873,0.0962,0.1031,0.1091,0.1139,0.1187,0.1158,0.0938,0.0726,0.0418,0.0266,0.0108,0.0061,0.0074,0.0084,0.0094,0.0073,0.0075,0.0051,0.0051,0.0052,0.0052,0.0052,0.0574,0.0619,0.0688,0.0779,0.0866,0.0974,0.1054,0.1152,0.126,0.1329,0.1313,0.1269,0.1029,0.0644,0.0379,0.0098,0.0113,0.0004,0.0006,0.0008,0.0026,0.0034,-0.0016,-0.0017,-0.0017,-0.0017,-0.0017,0,0.062,0.0669,0.0754,0.0859,0.0956,0.0998,0.114,0.1217,0.1337,0.14,0.1434,0.1198,0.0966,0.0678,0.0265,0.0024,0.0008,-0.0058,-0.0027,-0.0023,-0.0021,-0.0004,-0.0054,-0.0055,-0.0056,-0.0057,0,0,0.0643,0.0721,0.076,0.0909,0.0989,0.1116,0.1196,0.1303,0.1377,0.1433,0.1416,0.1387,0.1045,0.0739,0.0414,0.0174,0.0129,0.0127,0.0185,0.0264,0.027,0.0044,0.0078,0,0,0,0,0]}],[{"header":{"parameterUnit":"m.s-1","parameterCategory":2,"la1":30.2991,"la2":30.254,"lo1":-89.0895,"lo2":-89.0444,"dy":0.0017,"dx":0.0017,"nx":28,"ny":28,"refTime":"2024-12-04T09:00:00:Z","depth":"4","parameterNumber":2,"parameterNumberName":"U-component_of_CURRENTS"},"data":[0,0,0,0,0,0,0,0,0,0,0,0,0,0,0,0,0,0,0,0,0,0,0,0,0,0,0,0,0,0,0,0,0,0,0,0,0,0,0,0,0,0,0,0,0,0,0,0,0,0,0,0,0,0,0,0,0,0,0.1702,0.1703,0,0.175,0.1751,0.1751,0.1799,0.18,0.1801,0.1802,0.186,0.186,0.1861,0,0,0,0,0,0,0,0,0,0,0,0,0,0.164,0.1641,0.1702,0.1703,0.1704,0.175,0.1751,0.1751,0.1799,0.18,0.1801,0.1802,0.1859,0.186,0.1861,0,0,0,0,0,0,0,0,0,0,0,0,0,0.1673,0.1641,0.1702,0.1735,0.1738,0.175,0.1751,0.1751,0.1799,0.18,0.1802,0.1803,0.1859,0.186,0.1861,0.1843,0,0,0.1865,0.1865,0,0,0,0,0,0,0,0,0.1671,0.1675,0.1729,0.1733,0.1737,0.1772,0.175,0.1783,0.1799,0.1774,0.1802,0.1803,0.1832,0.1835,0.1838,0.1846,0.1848,0.1865,0.1866,0.1866,0.1866,0,0,0,0,0,0,0,0.1669,0.1674,0.1719,0.173,0.1735,0.1743,0.1749,0.1756,0.1794,0.1776,0.178,0.1788,0.1834,0.1837,0.184,0.1849,0.1865,0.1866,0.1867,0.1867,0.196,0.1962,0,0,0,0,0,0,0.1667,0.1671,0.1718,0.1721,0.1709,0.1744,0.175,0.1758,0.1794,0.1801,0.1787,0.1791,0.1834,0.1839,0.1842,0.1922,0.1866,0.1867,0.1868,0.1958,0.1961,0.1962,0,0,0,0,0,0,0.1665,0.167,0.1716,0.1699,0.1706,0.1744,0.1751,0.1758,0.18,0.1802,0.181,0.1827,0.1836,0.1841,0.1885,0.1921,0.1868,0.1869,0.1956,0.1959,0.1962,0.2018,0,0,0,0,0,0,0.1663,0.1669,0.1692,0.1699,0.1707,0.1746,0.1751,0.1758,0.1802,0.1808,0.1838,0.1843,0.1837,0.1883,0.1886,0.1921,0.187,0.1954,0.1957,0.1961,0.2013,0.2022,0.2029,0,0,0,0,0,0.166,0.1678,0.1692,0.1699,0.173,0.1747,0.1752,0.1781,0.1803,0.1824,0.1851,0.1844,0.1907,0.1885,0.1888,0.1925,0.1952,0.1956,0.196,0.201,0.202,0.2029,0,0,0,0,0,0,0.1662,0.1685,0.1701,0.1726,0.1748,0.1757,0.1785,0.1802,0.1839,0.1859,0.1861,0.1867,0.1922,0.1916,0.1893,0.1963,0.193,0.1935,0.1967,0.1977,0.1984,0.1985,0.187,0,0,0,0,0,0.1672,0.1697,0.1713,0.1739,0.1753,0.1777,0.1796,0.1816,0.184,0.186,0.1881,0.1908,0.1933,0.1951,0.1968,0.2001,0.2005,0.2029,0.2037,0.2044,0.2048,0.2093,0.2105,0.1976,0.1976,0.1976,0,0,0.1681,0.1698,0.1714,0.1743,0.1765,0.1787,0.1792,0.1831,0.1859,0.1858,0.1917,0.1939,0.195,0.1992,0.2016,0.1996,0.2083,0.2049,0.2054,0.2055,0.2098,0.2111,0.2122,0.1978,0.1978,0.1978,0,0,0.1695,0.1727,0.1748,0.177,0.181,0.1822,0.1842,0.1873,0.1903,0.1951,0.1964,0.2009,0.2045,0.2059,0.2068,0.2129,0.2125,0.2144,0.2181,0.2224,0.2235,0.2245,0.2262,0.2273,0.2144,0.2144,0.2144,0,0.1709,0.1733,0.1758,0.1782,0.1805,0.1842,0.1866,0.1896,0.1942,0.1972,0.1984,0.2064,0.2074,0.2123,0.2146,0.2147,0.2165,0.2141,0.2234,0.2244,0.2252,0.2268,0.2279,0.2148,0.2147,0.2147,0.2147,0,0.1725,0.1759,0.1776,0.1818,0.1846,0.1876,0.1912,0.1959,0.2005,0.2035,0.2113,0.2135,0.2184,0.2196,0.2189,0.2259,0.225,0.224,0.2207,0.2269,0.2281,0.2292,0.2152,0.2151,0.215,0.2149,0,0,0.171,0.1774,0.1784,0.181,0.1868,0.1887,0.1948,0.2002,0.2054,0.2115,0.2179,0.2231,0.2263,0.2277,0.2285,0.2317,0.239,0.2311,0.2312,0.2322,0.2482,0.231,0.2304,0.2406,0.2408,0.241,0.2464,0,0.1717,0.176,0.1794,0.1846,0.1868,0.1925,0.1975,0.2037,0.2099,0.2172,0.2223,0.229,0.2288,0.2325,0.2363,0.2389,0.2422,0.2376,0.2425,0.2426,0.2261,0.2311,0.2417,0.2471,0.2474,0.2475,0.2477,0,0.1711,0.1743,0.179,0.1859,0.1878,0.1922,0.2013,0.2063,0.2169,0.2225,0.2308,0.2352,0.2427,0.2411,0.2496,0.2474,0.2487,0.2496,0.2498,0.2323,0.2273,0.2399,0.2495,0.2494,0.2492,0.2491,0.249,0,0.1666,0.1736,0.1776,0.1799,0.1885,0.1931,0.1987,0.2088,0.2145,0.227,0.2331,0.2424,0.2485,0.253,0.256,0.2546,0.2634,0.2612,0.2467,0.2455,0.2569,0.2558,0.2669,0.2669,0.2669,0.2668,0.2668,0,0.1634,0.1671,0.1767,0.1786,0.1848,0.1919,0.2003,0.2076,0.2189,0.2255,0.2362,0.2416,0.2524,0.2581,0.2592,0.2557,0.2668,0.2477,0.246,0.259,0.2582,0.2576,0.2564,0.267,0.267,0.267,0.2669,0,0.1572,0.1635,0.1688,0.179,0.1828,0.1876,0.2003,0.2055,0.2179,0.2269,0.2314,0.2445,0.251,0.258,0.265,0.2578,0.2571,0.253,0.2665,0.2654,0.2354,0.2345,0.2366,0.2361,0.2356,0.2352,0.2349,0,0.1537,0.156,0.1679,0.1715,0.1768,0.1855,0.1908,0.2039,0.209,0.2256,0.2278,0.2397,0.2463,0.2423,0.251,0.2516,0.2486,0.2462,0.24,0.2342,0.2325,0.2324,0.2321,0.2341,0.234,0.2339,0.2338,0,0.1472,0.1535,0.158,0.1652,0.1717,0.1775,0.1861,0.1884,0.2024,0.2158,0.2185,0.2212,0.2275,0.2314,0.2337,0.2338,0.2465,0.2412,0.2421,0.2362,0.2312,0.2299,0.2303,0.2321,0.2324,0.2325,0.2326,0,0.1432,0.1448,0.1519,0.1568,0.1644,0.1661,0.1721,0.1767,0.183,0.2001,0.2005,0.2126,0.225,0.2222,0.2245,0.223,0.2191,0.2108,0.2132,0.2151,0.2054,0.1957,0.1845,0,0,0,0,0,0.138,0.1382,0.1423,0.146,0.1529,0.1573,0.167,0.1731,0.1863,0.1828,0.1909,0.1953,0.1976,0.2041,0.1983,0.2153,0.2206,0.2074,0.2124,0.223,0.2249,0.2154,0,0,0,0,0,0,0.1341,0.138,0.1384,0.136,0.1368,0.1421,0.148,0.1569,0.1554,0.1698,0.1722,0.1831,0.1889,0.1992,0.1946,0.1965,0.1953,0.2155,0.2149,0.222,0.2237,0.2252,0.216,0,0,0,0,0]},{"header":{"parameterUnit":"m.s-1","parameterCategory":2,"la1":30.2991,"la2":30.254,"lo1":-89.0895,"lo2":-89.0444,"dy":0.0017,"dx":0.0017,"nx":28,"ny":28,"refTime":"2024-12-04T09:00:00:Z","depth":"4","parameterNumber":3,"parameterNumberName":"V-component_of_CURRENTS"},"data":[0,0,0,0,0,0,0,0,0,0,0,0,0,0,0,0,0,0,0,0,0,0,0,0,0,0,0,0,0,0,0,0,0,0,0,0,0,0,0,0,0,0,0,0,0,0,0,0,0,0,0,0,0,0,0,0,0,0,0.0162,0.0161,0,0.014,0.0139,0.0139,0.0123,0.0123,0.0123,0.0123,0.0098,0.0097,0.0097,0,0,0,0,0,0,0,0,0,0,0,0,0,0.0165,0.0165,0.0162,0.0161,0.0161,0.014,0.0139,0.0139,0.0123,0.0123,0.0123,0.0122,0.0098,0.0097,0.0097,0,0,0,0,0,0,0,0,0,0,0,0,0,0.0155,0.0165,0.0162,0.0151,0.0149,0.014,0.0139,0.0139,0.0123,0.0123,0.0123,0.0122,0.0098,0.0097,0.0097,0.0095,0,0,0.0094,0.0094,0,0,0,0,0,0,0,0,0.0156,0.0155,0.0153,0.0151,0.015,0.0134,0.0131,0.0124,0.0123,0.0133,0.0123,0.0122,0.011,0.0108,0.0104,0.0094,0.0093,0.0094,0.0093,0.0093,0.0093,0,0,0,0,0,0,0,0.0157,0.0156,0.0153,0.0152,0.0151,0.0138,0.0137,0.013,0.0122,0.0132,0.0131,0.0129,0.0109,0.0105,0.0103,0.0092,0.0094,0.0093,0.0093,0.0092,0.0088,0.0088,0,0,0,0,0,0,0.0161,0.0157,0.0153,0.0152,0.0153,0.0139,0.0137,0.0139,0.0122,0.012,0.0129,0.0128,0.0106,0.0104,0.0102,0.0117,0.0093,0.0092,0.0092,0.0087,0.0088,0.0088,0,0,0,0,0,0,0.0162,0.0161,0.0154,0.0154,0.0152,0.0139,0.0141,0.0139,0.0137,0.012,0.0117,0.013,0.0106,0.0104,0.0102,0.0116,0.0092,0.0091,0.0087,0.0087,0.0088,0.0136,0,0,0,0,0,0,0.0162,0.0162,0.0166,0.0154,0.0152,0.0155,0.0141,0.0138,0.0136,0.0135,0.012,0.0118,0.0106,0.0103,0.0101,0.0114,0.0091,0.0086,0.0087,0.0088,0.0134,0.0138,0.0142,0,0,0,0,0,0.0162,0.017,0.0167,0.0166,0.0158,0.0156,0.0154,0.0143,0.0137,0.014,0.013,0.0118,0.0106,0.0103,0.01,0.0113,0.0086,0.0087,0.0088,0.0132,0.0137,0.0142,0,0,0,0,0,0,0.0173,0.0169,0.0165,0.0171,0.0167,0.0153,0.0155,0.0147,0.0142,0.014,0.0123,0.012,0.0123,0.011,0.0107,0.0113,0.0094,0.0094,0.0129,0.0133,0.0137,0.0146,0.009,0,0,0,0,0,0.0178,0.0184,0.0176,0.0182,0.018,0.0168,0.0166,0.016,0.0152,0.0149,0.0139,0.0129,0.0124,0.0123,0.0114,0.0118,0.0095,0.0124,0.0128,0.0132,0.0136,0.0113,0.0115,0.0091,0.0091,0.0091,0,0,0.0182,0.0182,0.0184,0.0184,0.0179,0.0188,0.0167,0.0167,0.0176,0.0147,0.0156,0.0142,0.0127,0.0133,0.0133,0.0125,0.0125,0.0133,0.0136,0.0139,0.0114,0.0116,0.0118,0.0091,0.0091,0.0091,0,0,0.0198,0.0196,0.0207,0.0208,0.0206,0.0201,0.0204,0.0195,0.0193,0.0197,0.018,0.0173,0.0166,0.016,0.0156,0.0175,0.0146,0.0173,0.0202,0.018,0.0182,0.0183,0.0153,0.0151,0.0176,0.0176,0.0176,0,0.0204,0.022,0.0209,0.0223,0.023,0.0212,0.0229,0.0225,0.0218,0.0222,0.0206,0.0196,0.018,0.019,0.0195,0.0185,0.0163,0.0188,0.0185,0.0186,0.0187,0.0156,0.0153,0.0179,0.0179,0.0178,0.0178,0,0.023,0.0244,0.0251,0.0267,0.0272,0.0283,0.0279,0.0282,0.0275,0.0272,0.0275,0.0249,0.0244,0.0237,0.0222,0.0225,0.0205,0.0192,0.0175,0.0192,0.0158,0.0155,0.0182,0.0181,0.0181,0.018,0,0,0.0241,0.0266,0.027,0.029,0.0298,0.0308,0.0323,0.0336,0.0355,0.0335,0.035,0.0332,0.0314,0.0307,0.0284,0.0262,0.0242,0.0232,0.023,0.0206,0.0186,0.0166,0.016,0.0229,0.0228,0.0228,0.0159,0,0.0267,0.0307,0.0311,0.0353,0.0374,0.037,0.0391,0.0399,0.0399,0.0407,0.0375,0.038,0.0343,0.0341,0.0314,0.0263,0.0236,0.0261,0.017,0.0168,0.015,0.0157,0.0228,0.0156,0.0155,0.0155,0.0154,0,0.0292,0.032,0.0365,0.0407,0.0416,0.0438,0.0473,0.0492,0.0495,0.0493,0.0483,0.0455,0.0426,0.0386,0.0306,0.0324,0.026,0.0212,0.0208,0.0172,0.0142,0.0135,0.0148,0.0148,0.0149,0.0149,0.0149,0,0.0312,0.0358,0.04,0.0414,0.0454,0.0476,0.05,0.052,0.055,0.055,0.056,0.0517,0.0497,0.0415,0.0313,0.031,0.0212,0.0195,0.0115,0.0113,0.013,0.0129,0.0134,0.0134,0.0134,0.0134,0.0134,0,0.0339,0.0373,0.0416,0.044,0.0497,0.0514,0.0575,0.0587,0.0617,0.0654,0.061,0.0613,0.0503,0.0431,0.0331,0.0213,0.0224,0.0121,0.0096,0.0151,0.0153,0.0127,0.0127,0.0132,0.0132,0.0133,0.0133,0,0.0352,0.0378,0.0433,0.0487,0.0509,0.0553,0.0628,0.0672,0.069,0.0731,0.0731,0.0686,0.0593,0.0471,0.0335,0.0243,0.0128,0.0081,0.0145,0.0125,0.0037,0.004,-0.0012,-0.0013,-0.0014,-0.0015,-0.0015,0,0.0361,0.0391,0.0467,0.0506,0.0534,0.0604,0.0655,0.0703,0.075,0.0773,0.0788,0.0719,0.0665,0.0464,0.033,0.0135,0.0103,0.0035,0.0036,0.0042,0.0023,0.0028,0.0033,-0.0017,-0.0017,-0.0018,-0.0018,0,0.0381,0.0409,0.0454,0.0536,0.0597,0.0673,0.0745,0.0783,0.0833,0.0849,0.0833,0.0731,0.0624,0.0467,0.0313,0.0172,0.0076,0.0024,0.0025,0.0025,0.0035,0.0018,0.0024,-0.0021,-0.0021,-0.0021,-0.002,0,0.0395,0.0427,0.0488,0.056,0.064,0.0713,0.0756,0.0806,0.0852,0.087,0.0862,0.0749,0.0691,0.0486,0.0346,0.0204,0.0164,0.0107,0.0103,0.0105,0.0156,0.0186,0.0157,0,0,0,0,0,0.0407,0.0441,0.0507,0.0585,0.0667,0.0715,0.0802,0.084,0.0883,0.0876,0.0872,0.0771,0.0572,0.0497,0.0351,0.0313,0.013,0.0135,0.006,-0.0041,-0.0037,-0.0,0,0,0,0,0,0,0.0412,0.047,0.05,0.0593,0.065,0.0742,0.08,0.0832,0.0834,0.0851,0.0756,0.0716,0.0531,0.0651,0.0341,0.03,0.0228,0.005,0.0047,-0.0044,-0.004,-0.0037,0.0003,0,0,0,0,0]}]]